User: anonymous   Login
Location: Caltech
(34.1382°N, 118.1253°W)
Time: 17:19:02
(UTC-08:00)
Language:

Cosmos 1606 - Orbit

View from above orbital plane
View from above orbital plane
View from above satellite
View from above satellite

Ground track
Ground track

The orbit data is extracted from the following two-line orbital elements,

1 15369U 84111A   14355.19951298  .00010154  00000-0  59074-3 0  7011
2 15369 082.5298 294.8936 0020439 157.1967 203.0176 15.11754874642896
Epoch (UTC): 21 December 2014 04:47:17
Eccentricity: 0.0020439
inclination: 82.5298°
perigee height: 517 km
apogee height: 545 km
right ascension of ascending node: 294.8936°
argument of perigee: 157.1967°
revolutions per day: 15.11754874
mean anomaly at epoch: 203.0176°
orbit number at epoch: 64289

The dashed part of the orbit path shows where the satellite is in the earth's shadow,  

DLR